Content
SEND FEEDBACK

Daily
Averages
Monthly
Summary
Suriname

ABANNA KONDRE, SURINAME


Home > South America > Suriname
Elevation: 184 feet     Latitude: 05 01N     Longitude: 054 58W

WEATHER
 
SELECT A DAY
Number of Records: 105,734;   Date Range: 6/30/96 - 11/24/14
 
SHARE

PRINT THIS DATA

[ ← Previous Day ]
WEATHER ALMANAC - JANUARY 3, 2013
[ Next Day → ]
[ °C ]   °F
Weather ElementAverageHighLow
Temperature77.5 °F89.6 °F (1:00 pm)66.2 °F (6:00 am)
Dewpoint69.6 °F73.4 °F (9:00 am)66.2 °F (6:00 am)
Humidity78.7 %100 % (1:00 am)55 % (12:00 pm)
Barometer29.93 in29.98 in (9:00 am)29.89 in (3:00 am)
Wind Speed6.1 mph13.8 mph (4:00 pm)
Weather ElementAverage
Visibility5.5 mi
Wind DirectionNE (42.6 °)

Weather ElementTotal
Precipitation---
Cooling Degree Days12.9 (Base 65)
Growing Degree Days27.9 (Base 50)
Averaged from 23 records on January 3, 2013
WEATHER CONDITIONS BREAKOUT
WIND DIRECTION BREAKOUT
WEATHER BY HOUR - JANUARY 3, 2013
[ °C ]   °F
Local TimeTemperatureDewpointHumidityBarometerVisibilityWind DirectionWind SpeedGust SpeedPrecipitationEventsConditions
1:00 AM69.8 °F69.8 °F100 %29.92 in6.2 miCalmPartly Cloudy
2:00 AM69.8 °F68.0 °F94 %29.92 inCalmClear
3:00 AM68.0 °F68.0 °F100 %29.89 in6.2 miCalmPartly Cloudy
4:00 AM68.0 °F68.0 °F100 %29.89 in6.2 miCalmPartly Cloudy
5:00 AM68.0 °F68.0 °F100 %29.89 in1.9 miSW (220°)2.3 mphMostly Cloudy
6:00 AM66.2 °F66.2 °F100 %29.92 in0.6 miCalmMostly Cloudy
7:00 AM66.2 °F66.2 °F100 %29.92 in3.1 miCalmScattered Clouds
8:00 AM68.0 °F68.0 °F100 %29.95 in3.1 miCalmPartly Cloudy
9:00 AM77.0 °F73.4 °F89 %29.98 in6.2 miNNE (30°)2.3 mphPartly Cloudy
10:00 AM82.4 °F71.6 °F70 %29.98 in6.2 miEast (80°)11.5 mphScattered Clouds
11:00 AM84.2 °F69.8 °F62 %29.98 in6.2 miENE (60°)11.5 mphScattered Clouds
12:00 PM87.8 °F69.8 °F55 %29.95 in6.2 miNE (50°)10.4 mphScattered Clouds
1:00 PM89.6 °F71.6 °F55 %29.92 in6.2 miENE (70°)10.4 mphScattered Clouds
2:00 PM87.8 °F71.6 °F58 %29.92 in6.2 miEast (80°)11.5 mphScattered Clouds
3:00 PM84.2 °F68.0 °F58 %29.89 in6.2 miNE (50°)12.7 mphPartly Cloudy
4:00 PM86.0 °F71.6 °F62 %29.89 in6.2 miNE (40°)13.8 mphPartly Cloudy
5:00 PM84.2 °F71.6 °F66 %29.89 in6.2 miNE (50°)11.5 mphScattered Clouds
6:00 PM84.2 °F69.8 °F62 %29.89 in6.2 miNE (40°)9.2 mphPartly Cloudy
7:00 PM80.6 °F69.8 °F70 %29.89 in6.2 miNE (50°)9.2 mphPartly Cloudy
8:00 PM78.8 °F69.8 °F74 %29.92 in6.2 miNNE (30°)8.1 mphPartly Cloudy
9:00 PM78.8 °F69.8 °F74 %29.95 in6.2 miNNE (30°)5.8 mphMostly Cloudy
10:00 PM77.0 °F69.8 °F78 %29.95 in6.2 miNE (40°)5.8 mphPartly Cloudy
11:00 PM77.0 °F71.6 °F83 %29.98 in6.2 miENE (60°)3.5 mphScattered Clouds
Hourly data recorded from SMJP, located miles away from Abanna Kondre, Suriname







STORIES FROM OUR PARTNERS